Regional Weather Roundup
Issued by NWS

Home | Current Version | Previous Version | Graphics & Text | Print | Product List | Glossary On
Versions: 1 2 3 4 5 6 7 8 9 10 11 12 13 14 15 16 17 18 19 20 21 22 23 24 25 26 27 28 29 30 31 32 33 34 35 36 37 38 39 40 41 42 43 44 45 46 47 48 49 50
000
ASUS43 KOAX 060210
RWRNE

WEATHER ROUNDUP FOR NEBRASKA
NATIONAL WEATHER SERVICE OMAHA NE
900 PM CDT TUE MAY 05 2015

NOTES: SATELLITE DATA IS BEING USED TO AUGMENT CLOUD COVER ABOVE
       12000 FEET.
       "FAIR" INDICATES FEW OR NO CLOUDS BELOW 12,000 FEET WITH NO
       SIGNIFICANT WEATHER AND/OR OBSTRUCTIONS TO VISIBILITY.

  * THESE STATIONS DO NOT REPORT WEATHER SUCH AS RAIN...SNOW OR FOG.

NEZ001>004-019>022-054>056-060300-
NEBRASKA PANHANDLE

CITY           SKY/WX    TMP DP  RH WIND       PRES   REMARKS
SCOTTSBLUFF    LGT RAIN  54  53  97 E13       29.83F
ALLIANCE       LGT RAIN  54  53  97 MISG      29.85F
CHADRON        CLOUDY    58  51  78 SE13      29.84S
KIMBALL        LGT RAIN  52  51  99 E21G26    29.82S
SIDNEY         RAIN      52  51  97 E17       29.83F FOG
$$

NEZ057>060-069>072-079>082-060300-
SOUTHWEST NEBRASKA

CITY           SKY/WX    TMP DP  RH WIND       PRES   REMARKS
NORTH PLATTE   LGT RAIN  56  52  86 SE15G24   29.88R
IMPERIAL       LGT RAIN  54  52  93 SE23      29.81F
LEXINGTON      LGT RAIN  58  53  84 SE8       29.89F
MCCOOK         HVY RAIN  57  54  89 E16G24    29.83F FOG
OGALLALA       LGT RAIN  56  53  90 SE14      29.84F
$$

NEZ005>010-023>029-035>040-094-060300-
NORTH CENTRAL NEBRASKA

CITY           SKY/WX    TMP DP  RH WIND       PRES   REMARKS
VALENTINE      LGT RAIN  56  54  93 NE6       29.90F
AINSWORTH      RAIN      57  57  99 CALM      29.91S
BROKEN BOW     LGT RAIN  62  55  77 S15G23    29.91R
O`NEILL        CLOUDY    69  55  60 SE10      29.92S
ORD            LGT RAIN  64  52  64 S14       29.90R
THEDFORD       CLOUDY    57  56  97 E5        29.89F
$$

NEZ041-046>049-061>064-073>077-083>087-060300-
SOUTH CENTRAL NEBRASKA

CITY           SKY/WX    TMP DP  RH WIND       PRES   REMARKS
GRAND ISLAND   LGT RAIN  64  55  72 SE9       29.93R
AURORA         DRIZZLE   66  56  70 SE9       29.93R
HASTINGS       LGT RAIN  65  55  70 S16G28    29.92R
HEBRON         DRIZZLE   68  56  65 S15G22    29.94R
HOLDREGE       DRIZZLE   58  55  89 SE15G21   29.90S
KEARNEY *      CLOUDY    61  54  77 S8        29.91S
YORK           CLOUDY    68  55  64 SE10      29.93S
$$

NEZ011>018-030>034-042>045-060300-
NORTHEAST NEBRASKA

CITY           SKY/WX    TMP DP  RH WIND       PRES   REMARKS
NORFOLK        CLOUDY    68  57  68 SE9       29.94S
ALBION         CLOUDY    67  55  66 SE10      29.93S
BLAIR          CLOUDY    69  57  66 SE8       29.97S
COLUMBUS *     CLOUDY    68  55  64 SE10      29.96R
FREMONT        CLOUDY    70  58  64 SE8       29.96S
TEKAMAH        CLOUDY    68  60  75 SE9       29.96S
WAYNE          CLOUDY    67  58  73 SE9       29.97R
$$

NEZ050>053-065>068-078-088>093-060300-
SOUTHEAST NEBRASKA

CITY           SKY/WX    TMP DP  RH WIND       PRES   REMARKS
LINCOLN        CLOUDY    72  55  55 SE14G23   29.95R
OMAHA EPPLEY   CLOUDY    72  59  63 SE12      29.97S
BEATRICE       CLOUDY    67  60  76 SE6       29.94S
FALLS CITY     CLOUDY    65  60  84 SE10      29.99R
NEBRASKA CITY  CLOUDY    70  52  53 SE8       29.98S
PLATTSMOUTH    CLOUDY    70  58  65 SE9       29.98S
$$

NEZ044-045-051>053-067-060300-
OMAHA AREA

CITY           SKY/WX    TMP DP  RH WIND       PRES   REMARKS
OMAHA EPPLEY   CLOUDY    72  59  63 SE12      29.97S
BLAIR          CLOUDY    69  57  66 SE8       29.97S
FREMONT        CLOUDY    70  58  64 SE8       29.96S
MILLARD        CLOUDY    72  59  64 SE8       29.96S
OFFUTT AFB     CLOUDY    70  59  69 E9        29.97R
PLATTSMOUTH    CLOUDY    70  58  65 SE9       29.98S
$$



USA.gov is the U.S. government's official web portal to all federal, state and local government web resources and services.